Regional Weather Roundup
Issued by NWS

Home | Current Version | Previous Version | Text Only | Print | Product List | Glossary On
Versions: 1 2 3 4 5 6 7 8 9 10 11 12 13 14 15 16 17 18 19 20 21 22 23 24 25 26 27 28 29 30 31 32 33 34 35 36 37 38 39 40 41 42 43 44 45 46 47 48 49 50
000
ASUS45 KABQ 010410
RWRNM
WEATHER ROUNDUP FOR NEW MEXICO
NATIONAL WEATHER SERVICE ALBUQUERQUE NM
1000 PM MDT TUE MAR 31 2015

NOTE: "FAIR" MEANS FEW OR NO CLOUDS BELOW 12,000 FEET AGL WITH NO
       SIGNIFICANT WEATHER OR OBSTRUCTIONS TO VISION.

      THIS PRODUCT IS RELEASED AS TWO VERSIONS.  ONE VERSION NEAR
      THE TOP OF THE HOUR CONTAINING PRELIMINARY DATA FROM ALBUQUERQUE
      AND OTHER STATIONS.  A FINAL VERSION WITH ADDITIONAL DATA IS
      ISSUED ABOUT 10 MINUTES AFTER THE HOUR.

NMZ501-503-504-510>518-010500-
NORTHWEST PLATEAU/NORTHCENTRAL MOUNTAINS

CITY           SKY/WX    TMP DP  RH WIND       PRES   REMARKS
FARMINGTON     CLEAR     55  18  23 CALM      29.93S
LOS ALAMOS     CLEAR     57  17  21 W8        30.08S
SANTA FE       CLEAR     47  20  34 N5        30.03S
TAOS           PTCLDY    46  19  34 E8        30.08R
ANGEL FIRE     FAIR      39  23  53 SE6       30.14F WCI  35

$$
NMZ402-403-502-505>509-010500-
WESTCENTRAL MOUNTAINS/SOUTHWEST MOUNTAINS

CITY           SKY/WX    TMP DP  RH WIND       PRES   REMARKS
GALLUP         CLOUDY    52  23  32 SW3       30.05S
GRANTS         CLEAR     47  20  34 SW5       30.08F
SILVER CITY    MOCLDY    59  37  44 SW8       30.10R

$$
NMZ407-409-411-412-010500-
SOUTHERN DESERTS

CITY           SKY/WX    TMP DP  RH WIND       PRES   REMARKS
LORDSBURG      MOCLDY    64  43  45 S14       30.03R
DEMING         PTCLDY    61  43  51 SW15G24   30.02R
LAS CRUCES     PTCLDY    61  39  44 S7        30.02F
HOLLOMAN AFB   MOCLDY    68  42  39 SE18      29.98R
ALAMOGORDO     MOCLDY    66  41  39 S16G26    30.00S
T OR C         CLEAR     62  30  29 NW10      29.98R

$$
NMZ519>523-010500-
CENTRAL VALLEYS/CENTRAL HIGHLANDS

CITY           SKY/WX    TMP DP  RH WIND       PRES   REMARKS
ALBUQUERQUE    PTCLDY    62  23  22 S7        29.99R
DOUBLE EAGLE   CLEAR     55  21  26 SW9       30.02R
MORIARTY ARPT  FAIR      55  17  23 CALM      30.04S
CLINES CORNERS PTCLDY    55  19  24 NW7       30.06F
BELEN          FAIR      59  24  25 SW7       29.98S
SOCORRO        FAIR      66  26  22 W8        29.97S

$$
NMZ524>526-539-540-010500-
SOUTHCENTRAL MOUNTAINS

CITY           SKY/WX    TMP DP  RH WIND       PRES   REMARKS
RUIDOSO        PTCLDY    52  28  40 SW13      30.11S

$$
NMZ527>531-010500-
NORTHEAST HIGHLANDS/NORTHEAST PLAINS

CITY           SKY/WX    TMP DP  RH WIND       PRES   REMARKS
LAS VEGAS      CLEAR     51  20  29 W6        30.05S
RATON          CLEAR     48  19  31 NE8       29.99S
CLAYTON        CLEAR     59  25  27 S5        29.92F

$$
NMZ532>537-010500-
EASTCENTRAL PLAINS

CITY           SKY/WX    TMP DP  RH WIND       PRES   REMARKS
TUCUMCARI      CLEAR     60  27  28 S6        29.88R
CANNON AFB     NOT AVBL
CLOVIS AIRPORT CLEAR     61  37  41 SW12      29.94R

$$
NMZ028-029-538-010500-
SOUTHEAST PLAINS

CITY           SKY/WX    TMP DP  RH WIND       PRES   REMARKS
ROSWELL        PTCLDY    63  40  42 S8        29.92F
ARTESIA        MOCLDY    64  43  45 W14       29.96R
CARLSBAD       PTCLDY    58  45  62 SW9       29.92R
HOBBS          PTCLDY    57  37  47 CALM      29.97R


$$


USA.gov is the U.S. government's official web portal to all federal, state and local government web resources and services.